Home   Weather   Cluj-Napoca   Past weeks

Flag for Romania Past Weather in Cluj-Napoca, Romania — Yesterday and Last 2 Weeks

Now
41 °F

Passing clouds.


Feels Like: 35 °F
Forecast: 28 / 46 °F
Wind: 9 mph from North

Location: Cluj Airport-Napoca

Current Time: Feb 25, 2017 at 6:18:10 pm

Latest Report: Feb 25, 2017 at 5:00 pm


Visibility: N/A

Pressure: 30.15 "Hg

Humidity: 45%

Dew Point: 21 °F

Location of Cluj-NapocaLocation

Past Weather in Cluj-Napoca — Graph

°F

Cluj-Napoca Temperature Yesterday

Maximum temperature yesterday: 55 °F (at 10:00 am)
Minimum temperature yesterday: 34 °F (at 2:00 am)
Average temperature yesterday: 44 °F

High & Low Weather Summary for the Past Weeks

 TemperatureHumidityPressure
High57 °F (Feb 23, 2:30 pm)100% (Feb 17, 7:30 am)30.60 "Hg (Feb 17, 7:30 am)
Low18 °F (Feb 13, 5:30 am)36% (Feb 11, 3:00 pm)29.68 "Hg (Feb 24, 12:30 am)
Average34 °F77%30.21 "Hg
* Reported Feb 10 5:00 pm — Feb 25 5:00 pm, Cluj-Napoca, Weather by CustomWeather, © 2017

Note: Actual official high and low records may vary slightly from our data, if they occured in-between our weather recording intervals... More about our weather records

Advertising

Cluj-Napoca Weather History for the Previous 24 Hours

Scroll right to see more
 ConditionsComfort  
Time TempWeatherWind HumidityBarometerVisibility
5:00 pm
Sat, Feb 25
41 °FPassing clouds.9 mph45%30.15 "HgN/A
4:30 pm41 °FPassing clouds.10 mph42%30.15 "HgN/A
4:00 pm41 °FPassing clouds.9 mph45%30.12 "HgN/A
3:30 pm43 °FPassing clouds.9 mph42%30.12 "HgN/A
3:00 pm43 °FPassing clouds.12 mph46%30.12 "HgN/A
2:30 pm41 °FScattered clouds.12 mph49%30.12 "HgN/A
2:00 pm41 °FPartly sunny.15 mph45%30.12 "HgN/A
1:30 pm39 °FScattered clouds.13 mph56%30.12 "HgN/A
1:00 pm41 °FPartly sunny.15 mph53%30.12 "HgN/A
12:30 pm41 °FScattered clouds.15 mph53%30.12 "HgN/A
12:00 pm41 °FPassing clouds.15 mph57%30.12 "HgN/A
11:30 am39 °FScattered clouds.12 mph56%30.09 "HgN/A
11:00 am39 °FPassing clouds.12 mph56%30.09 "HgN/A
10:30 am37 °FScattered clouds.13 mph60%30.09 "HgN/A
10:00 am37 °FPartly sunny.12 mph65%30.09 "HgN/A
9:30 am37 °FPartly sunny.8 mph65%30.07 "HgN/A
9:00 am37 °FPartly sunny.8 mph75%30.04 "HgN/A
8:30 am37 °FPartly sunny.9 mph81%30.01 "HgN/A
8:00 am37 °FScattered clouds.6 mph81%30.01 "HgN/A
7:30 am37 °FScattered clouds.6 mph81%29.98 "HgN/A
7:00 am37 °FPassing clouds.12 mph81%29.98 "HgN/A
6:30 am37 °FPassing clouds.8 mph87%29.98 "HgN/A
6:00 am37 °FPassing clouds.8 mph81%29.95 "HgN/A
5:30 am37 °FPassing clouds.7 mph81%29.95 "HgN/A
5:00 am37 °FPassing clouds.9 mph81%29.95 "HgN/A
4:30 am37 °FPassing clouds.8 mph81%29.92 "HgN/A
4:00 am37 °FPassing clouds.9 mph87%29.92 "HgN/A
3:30 am37 °FPassing clouds.8 mph87%29.92 "HgN/A
3:00 am39 °FPassing clouds.10 mph81%29.92 "HgN/A
2:30 am39 °FPassing clouds.9 mph75%29.92 "HgN/A
2:00 am41 °FPassing clouds.13 mph66%29.89 "HgN/A
1:30 am43 °FPassing clouds.14 mph61%29.89 "HgN/A
1:00 am43 °FPassing clouds.9 mph61%29.86 "HgN/A
12:30 am43 °FPassing clouds.6 mph61%29.83 "HgN/A
12:00 am43 °FPassing clouds.6 mph61%29.83 "HgN/A
11:30 pm
Fri, Feb 24
45 °FPassing clouds.7 mph57%29.83 "HgN/A
11:00 pm43 °FPassing clouds.8 mph66%29.83 "HgN/A
10:30 pm45 °FPassing clouds.10 mph61%29.80 "HgN/A
10:00 pm45 °FPassing clouds.12 mph57%29.80 "HgN/A
9:30 pm45 °FPassing clouds.12 mph66%29.80 "HgN/A
9:00 pm45 °FPassing clouds.17 mph66%29.80 "HgN/A
8:30 pm46 °FClear.9 mph57%29.80 "Hg10 mi
8:00 pm46 °FClear.13 mph62%29.77 "Hg10 mi
7:30 pm45 °FClear.2 mph81%29.74 "Hg10 mi
7:00 pm43 °FPassing clouds.No wind93%29.74 "HgN/A
6:30 pm45 °FPassing clouds.No wind87%29.71 "HgN/A
6:00 pm45 °FPassing clouds.No wind87%29.71 "HgN/A
Weather by CustomWeather, © 2017

See weather overviewHow to use our weather pages